Regional Weather Roundup
Issued by NWS

Home | Current Version | Previous Version | Text Only | Print | Product List | Glossary On
Versions: 1 2 3 4 5 6 7 8 9 10 11 12 13 14 15 16 17 18 19 20 21 22 23 24 25 26 27 28 29 30 31 32 33 34 35 36 37 38 39 40 41 42 43 44 45 46 47 48 49 50
000
ASUS43 KMPX 280701
RWRMN
WEATHER ROUNDUP FOR MINNESOTA
NATIONAL WEATHER SERVICE TWIN CITIES/CHANHASSEN MN
200 AM CDT FRI JUL 28 2017


NOTE: "FAIR" INDICATES FEW OR NO CLOUDS BELOW 12,000 FEET WITH NO
SIGNIFICANT WEATHER AND/OR OBSTRUCTIONS TO VISIBILITY. N/A MEANS
CURRENT SKY AND/OR WEATHER CONDITIONS ARE NOT AVAILABLE.

MNZ060>063-068>070-280800-
   Twin Cities Metro

CITY           SKY/WX    TMP DP  RH WIND       PRES   REMARKS
TWIN CITIES    PTCLDY    70  62  76 CALM      30.05R
ST PAUL        CLEAR     68  62  81 CALM      30.05R
CRYSTAL        CLEAR     64  58  80 CALM      30.04R
BLAINE         CLEAR     66  61  82 CALM      30.06R
LAKEVILLE      CLEAR     61  61 100 CALM      30.05S
EDEN PRAIRIE   CLEAR     69  62  78 NE5       30.04S
SOUTH ST PAUL  CLEAR     69  60  73 CALM      30.05R
LAKE ELMO      FAIR      63  61  94 CALM      30.07R
$$
MNZ001>005-007-008-013>017-022>024-027-028-280800-
   Northwest Minnesota

CITY           SKY/WX    TMP DP  RH WIND       PRES   REMARKS
BEMIDJI        CLEAR     53  52  95 CALM      30.10R
HALLOCK        CLEAR     61  57  88 E3        30.06S
ROSEAU         CLEAR     61  55  82 CALM      30.07S HAZE
WARROAD        CLEAR     61  55  82 SE3       30.08S
CROOKSTON      CLEAR     63  61  94 CALM      30.08S
FOSSTON        CLEAR     57  54  88 CALM      30.10R
DETROIT LAKES  CLEAR     64  61  88 E3        30.10S
MOORHEAD       CLEAR     63  57  82 CALM      30.07S
PARK RAPIDS    CLEAR     60  56  86 CALM      30.10R
$$
MNZ006-009>011-018-025>026-280800-
   North Central Minnesota

CITY           SKY/WX    TMP DP  RH WIND       PRES   REMARKS
BAUDETTE       FOG       58  58 100 SW3       30.08S VSB 3/4
FLAG ISLAND    CLEAR     70  61  73 CALM      30.06S
INTL FALLS     CLEAR     53  51  93 CALM      30.08S
WASKISH        CLEAR     55  55 100 CALM      30.09S
BIG FORK       CLEAR     54  54 100 CALM      30.10R FOG
LONGVILLE        N/A     57  57 100 CALM      30.10S FOG
GRAND RAPIDS   CLEAR     57  57 100 CALM      30.11S
CRANE LAKE     CLEAR     52  52 100 CALM      30.11S
ORR            CLEAR     55  52  88 CALM      30.08S
COOK             N/A     55  54  94 CALM      30.10S
WALKER         FAIR      58  57  99 CALM      30.10S
$$
MNZ012-019>021-037-280800-
   Northeast Minnesota

CITY           SKY/WX    TMP DP  RH WIND       PRES   REMARKS
DULUTH         CLEAR     57  54  89 E3        30.09S
ELY            CLEAR     54  52  94 SE5       30.11S
HIBBING        CLEAR     50  50 100 SE7       30.09S FOG
EVELETH        CLEAR     53  50  89 CALM      30.12R
DULUTH HARBOR  CLEAR     63  57  82 N5        30.09S
TWO HARBORS    CLEAR     55  52  88 N3        30.08S
SILVER BAY     CLEAR     52  50  93 CALM      30.09R
GRAND MARAIS     N/A     60  55  83 CALM      30.08R
G MARAIS ARPRT PTCLDY    52  48  87 CALM      30.14R
$$
MNZ029>031-032-039>041-046>048-054>057-064-280800-
   West Central Minnesota

CITY           SKY/WX    TMP DP  RH WIND       PRES   REMARKS
FERGUS FALLS   PTCLDY    66  61  82 E6        30.07S
WHEATON        PTCLDY    63  57  82 CALM      30.09R
MORRIS         PTCLDY    64  63  94 CALM      30.07R
ALEXANDRIA     PTCLDY    66  62  87 NE3       30.10R
ELBOW LAKE     FAIR      70  64  82 NE6       30.08R
WADENA         CLEAR     57  57 100 CALM      30.09R
GLENWOOD       PTCLDY    64 N/A N/A CALM      30.09R
APPLETON       PTCLDY    64  61  88 CALM      30.06S
BENSON         CLEAR     61  61 100 CALM      30.09R FOG
ORTONVILLE     PTCLDY    66  61  82 E5          N/A
MADISON        MOCLDY    66  63  88 CALM      30.07S
WILLMAR        FAIR      64  63  94 CALM      30.08S
$$
MNZ033>034-036-042>043-049>051-058-059-280800-
   Central Minnesota

CITY           SKY/WX    TMP DP  RH WIND       PRES   REMARKS
ST CLOUD       CLOUDY    60  60 100 NE3       30.07R
SAUK CENTRE    FAIR      62  61  96 CALM      30.08S
PAYNESVILLE    MOCLDY    60  59  96 CALM      30.08S
AITKIN         FOG       54  52  94 CALM      30.08S VSB 1/2
PINE RIVER     CLEAR     57  57 100 CALM      30.13R
BRAINERD       CLEAR     61  61 100 CALM      30.09R FOG
STAPLES        CLEAR     59  57  94 CALM      30.09R
LONG PRAIRIE   FAIR      63  61  94 CALM      30.09S
LITTLE FALLS   CLEAR     59  57  94 CALM      30.09R FOG
LITCHFIELD     PTCLDY    66  63  88 CALM      30.07S
BUFFALO        PTCLDY    64  59  85 CALM      30.07S
MAPLE LAKE     PTCLDY    63  62  96 CALM      30.07S
HUTCHINSON     CLEAR     62  61  97 CALM      30.07S
$$
MNZ037-044-045-052-053-280800-
   East Central Minnesota

CITY           SKY/WX    TMP DP  RH WIND       PRES   REMARKS
PRINCETON      CLEAR     63  61  94 CALM      30.07S
MORA           CLEAR     59  57  94 CALM      30.10R
CAMBRIDGE      CLEAR     66  59  77 CALM      30.06R
RUSH CITY      PTCLDY    63  59  87 NE3       30.08R
MOOSE LAKE     CLEAR     55  54  94 CALM      30.08R FOG
HINCKLEY       FAIR      61  61 100 CALM      30.09R
CLOQUET        CLEAR     57  54  88 CALM      30.10S FOG
MCGREGOR       CLEAR     57  55  94 CALM      30.09S
$$
MNZ071>073-080-081-089-090-097-098-280800-
   Southwest Minnesota

CITY           SKY/WX    TMP DP  RH WIND       PRES   REMARKS
MONTEVIDEO     PTCLDY    63  57  82 CALM      30.07R
CANBY          MOCLDY    64  61  91 CALM      30.08S
MARSHALL       CLEAR     62  61  96 W5        30.08R
REDWOOD FALLS  CLEAR     68  61  78 NE5       30.06R
OLIVIA         CLEAR     68  61  77 NE3       30.06S
PIPESTONE      CLEAR     64  61  88 CALM      30.09F
WINDOM         CLEAR     63  59  88 CALM      30.07S
WORTHINGTON    CLEAR     59  57  93 W3        30.09S
JACKSON        CLEAR     61  61 100 CALM      30.08S
TRACY          CLEAR     65  63  93 CALM      30.08S
SLAYTON        HVY RAIN  61  58  89 W3        30.10R
$$
MNZ065>067-074>077-082>085-091>093-280800-
   South Central Minnesota

CITY           SKY/WX    TMP DP  RH WIND       PRES   REMARKS
MANKATO        CLEAR     67  63  87 NE3       30.06S
NEW ULM        PTCLDY    68  61  77 NE3       30.06R
ST JAMES       CLEAR     63  61  94 CALM      30.06S
FAIRMONT       CLEAR     64  62  93 N3        30.07R
GLENCOE        CLEAR     65  64  97 CALM      30.05F
FARIBAULT      CLEAR     63  61  94 CALM      30.06S
OWATONNA       CLEAR     61  61 100 CALM      30.06S
WASECA         CLEAR     59  57  94 CALM      30.07S
ALBERT LEA     CLEAR     64  63  94 CALM      30.06S
$$
MNZ078>079-086>088-094>096-280800-
   Southeast Minnesota

CITY           SKY/WX    TMP DP  RH WIND       PRES   REMARKS
ROCHESTER      CLEAR     64  62  93 N5        30.06R
RED WING       CLEAR     66  59  77 CALM      30.03R
STANTON        CLEAR     63  61  94 CALM      30.04R FOG
DODGE CENTER   CLEAR     63  61  94 CALM      30.06R
WINONA         PTCLDY    63  63 100 CALM      30.02S
AUSTIN         CLEAR     63  61  94 CALM      30.05S
PRESTON        CLEAR     64  60  84 CALM      30.05S
$$
ABBREVIATIONS USED IN REMARKS
   TC - TEMPERATURES IN CELSIUS
  WCI - WIND CHILL INDEX
   HX - HEAT INDEX
  VSB - VISIBILITY
$$




USA.gov is the U.S. government's official web portal to all federal, state and local government web resources and services.